[[{"header":{"parameterUnit":"m.s-1","parameterCategory":1,"la1":30.2991,"la2":30.254,"lo1":-89.0895,"lo2":-89.0444,"dy":0.0017,"dx":0.0017,"nx":28,"ny":28,"refTime":"2024-06-29T03:00:00:Z","depth":0,"parameterNumber":2,"parameterNumberName":"U-component_of_WINDS"},"data":[0,0,0,0,0,0,0,0,0,0,0,0,0,0,0,0,0,0,0,0,0,0,0,0,0,0,0,0,0,0,0,0,0,0,0,0,0,0,0,0,0,0,0,0,0,0,0,0,0,0,0,0,0,0,0,0,0,0,1.4015,1.4016,0,1.4097,1.4098,1.4098,1.4113,1.4113,1.4112,1.4111,1.4193,1.4196,1.4199,0,0,0,0,0,0,0,0,0,0,0,0,0,1.3867,1.3869,1.4015,1.4016,1.4017,1.4096,1.4098,1.4099,1.4114,1.4113,1.4112,1.4111,1.4192,1.4196,1.4199,0,0,0,0,0,0,0,0,0,0,0,0,0,1.3938,1.387,1.4014,1.4034,1.4036,1.4096,1.4098,1.4099,1.4114,1.4113,1.4112,1.4111,1.4191,1.4195,1.4199,1.4245,0,0,1.4212,1.4214,0,0,0,0,0,0,0,0,1.3934,1.3943,1.403,1.4033,1.4036,1.4094,1.4075,1.4148,1.4114,1.4084,1.4111,1.411,1.4161,1.4167,1.4185,1.4249,1.4252,1.4213,1.4215,1.4217,1.4218,0,0,0,0,0,0,0,1.3929,1.394,1.4047,1.4031,1.4035,1.4037,1.4046,1.4089,1.4127,1.4087,1.4088,1.4098,1.4162,1.4181,1.4187,1.4254,1.4212,1.4216,1.4219,1.422,1.4356,1.4357,0,0,0,0,0,0,1.3921,1.3936,1.4044,1.4049,1.3981,1.404,1.405,1.4076,1.4127,1.4133,1.4098,1.4098,1.4174,1.4182,1.419,1.4244,1.4217,1.4221,1.4223,1.4355,1.4356,1.4357,0,0,0,0,0,0,1.3918,1.3931,1.4041,1.3993,1.4007,1.4044,1.4073,1.4078,1.4097,1.4135,1.4142,1.4111,1.4174,1.4184,1.4231,1.4247,1.4223,1.4226,1.4353,1.4355,1.4356,1.4355,0,0,0,0,0,0,1.3913,1.3929,1.3948,1.3993,1.401,1.4082,1.4074,1.4081,1.4104,1.4105,1.4149,1.4155,1.4174,1.4224,1.4235,1.4253,1.423,1.4352,1.4354,1.4356,1.4354,1.4357,1.4359,0,0,0,0,0,1.3908,1.3945,1.3949,1.3962,1.4034,1.4083,1.4092,1.4113,1.4106,1.4124,1.4148,1.4154,1.4244,1.4229,1.4241,1.426,1.4351,1.4353,1.4356,1.4353,1.4356,1.4359,0,0,0,0,0,0,1.3901,1.3951,1.3957,1.4009,1.4042,1.4085,1.4109,1.4117,1.4151,1.415,1.4174,1.4184,1.4228,1.4249,1.4232,1.4306,1.4297,1.4302,1.429,1.4294,1.4296,1.429,1.4233,0,0,0,0,0,1.3905,1.3942,1.3983,1.4026,1.4042,1.4073,1.4095,1.4108,1.4142,1.4156,1.4183,1.4215,1.4251,1.4274,1.4309,1.4357,1.4365,1.4376,1.4379,1.438,1.4384,1.4408,1.4413,1.4365,1.4365,1.4365,0,0,1.3915,1.3947,1.3969,1.4025,1.4052,1.4087,1.4084,1.4122,1.4148,1.4161,1.4207,1.4228,1.4265,1.4312,1.4334,1.4331,1.4399,1.4384,1.4385,1.4387,1.4411,1.4416,1.442,1.4367,1.4366,1.4366,0,0,1.3951,1.398,1.4017,1.4043,1.4083,1.4103,1.4112,1.4154,1.4169,1.4215,1.4224,1.4255,1.4316,1.4341,1.4362,1.4404,1.4409,1.4414,1.4427,1.4451,1.4454,1.4458,1.447,1.4475,1.4418,1.4418,1.4418,0,1.3957,1.4012,1.4035,1.4072,1.4095,1.4109,1.4145,1.4169,1.4218,1.4233,1.4229,1.4304,1.433,1.4382,1.4392,1.4409,1.4418,1.4409,1.4452,1.4456,1.4459,1.4472,1.4477,1.4418,1.4418,1.4418,1.4418,0,1.4017,1.4055,1.408,1.4126,1.4153,1.4189,1.4215,1.4239,1.4249,1.4269,1.4314,1.4345,1.4386,1.4399,1.441,1.4451,1.4448,1.4448,1.4439,1.4464,1.4476,1.4481,1.4419,1.4419,1.4418,1.4418,0,0,1.4051,1.4109,1.4117,1.4137,1.4182,1.421,1.4246,1.4286,1.4304,1.4337,1.4366,1.4416,1.4416,1.4439,1.4453,1.4473,1.4501,1.447,1.4471,1.4473,1.4546,1.4545,1.455,1.4505,1.4506,1.4507,1.4542,0,1.409,1.4156,1.4176,1.423,1.4263,1.4275,1.4306,1.4335,1.4354,1.4384,1.4405,1.4439,1.4437,1.445,1.4471,1.4493,1.4516,1.4491,1.4531,1.4532,1.452,1.4557,1.4557,1.4588,1.4547,1.4548,1.4549,0,1.4145,1.4178,1.4236,1.4273,1.4288,1.4316,1.4352,1.4381,1.4413,1.4425,1.445,1.4462,1.4497,1.4487,1.4535,1.4518,1.4535,1.4548,1.455,1.4553,1.4541,1.456,1.4599,1.4603,1.4557,1.4556,1.4556,0,1.4161,1.422,1.4262,1.4279,1.4324,1.4343,1.4362,1.4394,1.4416,1.4447,1.4461,1.4496,1.4515,1.4541,1.456,1.4551,1.4606,1.4598,1.4615,1.4614,1.4626,1.4624,1.4667,1.4639,1.4639,1.4639,1.4639,0,1.4202,1.4236,1.4269,1.4294,1.4332,1.4354,1.439,1.441,1.4438,1.4465,1.4478,1.4504,1.4529,1.4557,1.4573,1.4609,1.4618,1.4627,1.463,1.4625,1.4624,1.4636,1.4634,1.464,1.464,1.4639,1.4639,0,1.4226,1.425,1.4295,1.4334,1.4345,1.437,1.4403,1.4427,1.4445,1.448,1.449,1.4519,1.4552,1.4575,1.4618,1.4628,1.4667,1.4671,1.4656,1.4658,1.4673,1.467,1.4724,1.4731,1.4699,1.47,1.47,0,1.425,1.4276,1.4317,1.4337,1.4357,1.4389,1.441,1.4432,1.4454,1.4491,1.451,1.4545,1.4574,1.4627,1.4651,1.4683,1.4687,1.4703,1.4692,1.4685,1.4685,1.4683,1.4684,1.4705,1.4705,1.4705,1.4705,0,1.4288,1.4298,1.433,1.4365,1.439,1.4419,1.4447,1.4462,1.4488,1.4512,1.4547,1.4569,1.4612,1.4646,1.468,1.4699,1.4706,1.4709,1.4714,1.4708,1.4698,1.4702,1.4659,1.4707,1.4707,1.4707,1.4707,1.4707,1.4312,1.4335,1.4367,1.44,1.4424,1.445,1.4473,1.4494,1.4524,1.4562,1.4572,1.4608,1.4637,1.4684,1.4703,1.473,1.4728,1.4736,1.4738,1.474,1.4739,1.4695,1.4736,1.4736,1.4736,1.4736,1.4736,0,1.4349,1.437,1.4401,1.444,1.4466,1.4471,1.4502,1.4522,1.4554,1.4581,1.4609,1.4647,1.4679,1.4705,1.4738,1.4754,1.4758,1.4762,1.476,1.4764,1.474,1.4731,1.4758,1.4758,1.4758,1.4758,1.4758,1.4758,1.4372,1.441,1.4424,1.4473,1.4493,1.4529,1.4546,1.4568,1.459,1.4633,1.4659,1.4676,1.4702,1.4736,1.4765,1.4772,1.4783,1.4785,1.4792,1.4769,1.4766,1.4764,1.4756,1.4788,1.4788,1.4815,1.4815,1.4815]},{"header":{"parameterUnit":"m.s-1","parameterCategory":1,"la1":30.2991,"la2":30.254,"lo1":-89.0895,"lo2":-89.0444,"dy":0.0017,"dx":0.0017,"nx":28,"ny":28,"refTime":"2024-06-29T03:00:00:Z","depth":0,"parameterNumber":3,"parameterNumberName":"V-component_of_WINDS"},"data":[0,0,0,0,0,0,0,0,0,0,0,0,0,0,0,0,0,0,0,0,0,0,0,0,0,0,0,0,0,0,0,0,0,0,0,0,0,0,0,0,0,0,0,0,0,0,0,0,0,0,0,0,0,0,0,0,0,0,3.6008,3.6009,0,3.6094,3.6095,3.6096,3.6075,3.6074,3.6072,3.607,3.6153,3.6157,3.616,0,0,0,0,0,0,0,0,0,0,0,0,0,3.5819,3.5823,3.6008,3.6009,3.601,3.6094,3.6095,3.6096,3.6075,3.6073,3.6071,3.607,3.6152,3.6156,3.6161,0,0,0,0,0,0,0,0,0,0,0,0,0,3.5903,3.5824,3.6008,3.601,3.6011,3.6094,3.6095,3.6097,3.6076,3.6073,3.6071,3.6069,3.615,3.6156,3.6161,3.6245,0,0,3.6178,3.6181,0,0,0,0,0,0,0,0,3.5898,3.591,3.6009,3.601,3.6011,3.6072,3.6059,3.6146,3.6077,3.6051,3.607,3.6067,3.6128,3.6135,3.6156,3.6249,3.6253,3.6179,3.6182,3.6185,3.6186,0,0,0,0,0,0,0,3.5892,3.5906,3.6042,3.601,3.6012,3.6005,3.6014,3.6075,3.6102,3.6053,3.6052,3.6063,3.6128,3.6151,3.6158,3.6254,3.6179,3.6184,3.6187,3.6189,3.6417,3.6419,0,0,0,0,0,0,3.5886,3.5901,3.6039,3.6045,3.5948,3.601,3.602,3.6055,3.6101,3.6106,3.6065,3.6061,3.6142,3.6151,3.6161,3.626,3.6185,3.619,3.6193,3.6414,3.6417,3.642,0,0,0,0,0,0,3.5882,3.5899,3.6036,3.5973,3.599,3.6016,3.6055,3.6058,3.6081,3.611,3.6114,3.6084,3.6141,3.6153,3.6224,3.6262,3.6192,3.6197,3.6411,3.6415,3.6419,3.646,0,0,0,0,0,0,3.5877,3.5898,3.5931,3.5974,3.5993,3.61,3.6057,3.6061,3.6091,3.6088,3.6129,3.6133,3.614,3.6216,3.623,3.6269,3.6202,3.6407,3.6413,3.6417,3.6455,3.6465,3.6473,0,0,0,0,0,3.587,3.5939,3.5933,3.595,3.6036,3.6102,3.6113,3.612,3.6094,3.6127,3.6146,3.6132,3.6257,3.6223,3.6239,3.628,3.6405,3.6411,3.6417,3.6451,3.6463,3.6473,0,0,0,0,0,0,3.5899,3.5945,3.5939,3.6024,3.6059,3.6099,3.614,3.6133,3.6176,3.617,3.6176,3.6186,3.6258,3.6276,3.6238,3.6362,3.6327,3.6336,3.6347,3.6359,3.6368,3.6361,3.6207,0,0,0,0,0,3.5916,3.5968,3.6004,3.6075,3.6094,3.6114,3.6143,3.6146,3.6182,3.6196,3.622,3.6254,3.6301,3.6331,3.6376,3.6458,3.6465,3.6494,3.6503,3.6511,3.6518,3.656,3.6572,3.644,3.644,3.644,0,0,3.595,3.5981,3.6014,3.6082,3.611,3.616,3.6127,3.6183,3.6219,3.6204,3.6273,3.6291,3.6329,3.6406,3.6441,3.6424,3.6556,3.6518,3.6524,3.6527,3.6567,3.658,3.6591,3.6444,3.6443,3.6442,0,0,3.6038,3.6069,3.613,3.6159,3.6202,3.6215,3.6229,3.6269,3.6281,3.6351,3.6339,3.6382,3.6463,3.649,3.6514,3.6611,3.6599,3.6625,3.6671,3.6712,3.6723,3.6732,3.6763,3.6775,3.6633,3.6633,3.6633,0,3.6075,3.6153,3.6162,3.6219,3.6247,3.6238,3.6298,3.6325,3.638,3.6399,3.6379,3.6479,3.6504,3.6585,3.6609,3.663,3.6644,3.662,3.6721,3.673,3.6739,3.6769,3.6781,3.6636,3.6635,3.6635,3.6635,0,3.6194,3.6248,3.6293,3.6347,3.6381,3.6439,3.6454,3.6488,3.6487,3.6501,3.657,3.66,3.6649,3.6669,3.6669,3.675,3.6737,3.672,3.6683,3.6754,3.6782,3.6794,3.664,3.6639,3.6638,3.6637,0,0,3.6303,3.6361,3.6376,3.6399,3.6446,3.6486,3.6543,3.6593,3.6619,3.6657,3.6703,3.6771,3.6754,3.6781,3.6784,3.682,3.6891,3.6798,3.6798,3.6812,3.6979,3.699,3.7004,3.6884,3.6887,3.6889,3.6974,0,3.6392,3.6494,3.6503,3.6593,3.6641,3.6632,3.6681,3.6713,3.6727,3.6769,3.6784,3.6831,3.6807,3.6823,3.6859,3.6875,3.6924,3.6869,3.6924,3.6926,3.6912,3.7019,3.7032,3.7111,3.6986,3.6988,3.6989,0,3.6511,3.6553,3.6648,3.6686,3.6706,3.675,3.6795,3.6836,3.6871,3.6878,3.6909,3.6906,3.6961,3.6925,3.6999,3.6961,3.6984,3.6995,3.6999,3.7002,3.696,3.7023,3.7137,3.7148,3.7007,3.7006,3.7005,0,3.6577,3.6658,3.6724,3.6745,3.6791,3.6821,3.6842,3.6875,3.6903,3.6942,3.6959,3.7004,3.7027,3.706,3.7068,3.7041,3.7142,3.7106,3.7147,3.7147,3.7167,3.7165,3.7284,3.7186,3.7186,3.7185,3.7185,0,3.6675,3.6733,3.6754,3.6795,3.6859,3.6867,3.6929,3.6947,3.6977,3.7019,3.7013,3.7052,3.7062,3.7102,3.7109,3.7168,3.7179,3.7185,3.7185,3.7184,3.7183,3.7197,3.7191,3.7189,3.7188,3.7187,3.7187,0,3.6759,3.6776,3.6848,3.6885,3.6896,3.6941,3.6972,3.701,3.7023,3.7076,3.7089,3.711,3.7157,3.7169,3.7225,3.7229,3.7298,3.7294,3.7286,3.7285,3.7324,3.7319,3.7455,3.7472,3.7365,3.7366,3.7367,0,3.682,3.6864,3.6906,3.6935,3.6957,3.7003,3.7032,3.7042,3.7071,3.7114,3.7146,3.7193,3.723,3.7305,3.7323,3.7366,3.7361,3.7406,3.7367,3.7364,3.7359,3.7355,3.7358,3.7412,3.7414,3.7415,3.7415,0,3.6924,3.693,3.6973,3.7019,3.7054,3.709,3.7124,3.7147,3.7161,3.7194,3.7243,3.7272,3.7329,3.7375,3.7417,3.7435,3.7426,3.7428,3.7439,3.7437,3.7429,3.7431,3.7303,3.7424,3.7423,3.7422,3.7422,3.7422,3.6996,3.7034,3.707,3.7117,3.7144,3.7176,3.7213,3.7231,3.7272,3.732,3.7323,3.7375,3.7406,3.7462,3.7483,3.7522,3.7508,3.7525,3.7529,3.7532,3.7534,3.7425,3.753,3.753,3.7529,3.7529,3.7529,0,3.7098,3.712,3.7164,3.7212,3.7249,3.724,3.7277,3.7307,3.7354,3.7385,3.7422,3.7476,3.752,3.7542,3.7584,3.7611,3.7608,3.7621,3.7618,3.7622,3.7546,3.753,3.7623,3.7623,3.7623,3.7623,3.7623,3.7623,3.7155,3.7218,3.7228,3.7303,3.7324,3.7376,3.7398,3.7426,3.7451,3.7512,3.7549,3.7563,3.759,3.7634,3.7672,3.7677,3.7692,3.7707,3.771,3.7637,3.7628,3.7618,3.7604,3.7711,3.7711,3.7782,3.7783,3.7784]}]]